Weather History for Lawrence, KS

Change the Weather History Date:

Monday, December 31, 2012

  Actual Average Record
Temperature  
Mean Temperature 31 °F 29 °F  
Max Temperature 38 °F 39 °F 66 °F (2011)
Min Temperature 23 °F 19 °F 5 °F (2001)
Degree Days  
Heating Degree Days 34 36  
Month to date heating degree days 908 1036  
Since 1 July heating degree days 1940 2043  
Cooling Degree Days 0 0  
Month to date cooling degree days 0 0  
Year to date cooling degree days 1780 1371  
Moisture  
Dew Point 25 °F    
Average Humidity 70    
Maximum Humidity 92    
Minimum Humidity 48    
Precipitation  
Precipitation 0.11 in 0.05 in 0.12 in (2010)
Month to date precipitation 0.77 1.47  
Year to date precipitation 20.82 38.55  
Sea Level Pressure  
Sea Level Pressure 30.12 in    
Wind  
Wind Speed 6 mph (NNE)    
Max Wind Speed 14 mph    
Max Gust Speed 20 mph    
Visibility 3 miles    
Events Fog , Snow    
T = Trace of Precipitation, MM = Missing Value Source: NWS Daily Summary

Daily Weather History Graph

Daily Weather History Graph

Search for Another Location

Airport:

Trip Planner

Search our weather history database for the weather conditions in past years. The results will help you decide how hot, cold, wet, or windy it might be!

Date:

Astronomy

Dec. 31, 2012 Rise Set
Actual Time 7:39 AM CST 5:08 PM CST
Civil Twilight 7:09 AM CST 5:38 PM CST
Nautical Twilight 6:36 AM CST 6:12 PM CST
Astronomical Twilight 6:03 AM CST 6:44 PM CST
Moon 8:38 PM CST (12/31) 9:23 AM CST (12/31)
Length of Visible Light 10h 28m
Length of Day
9h 29m
Waning Gibbous, 90% of the Moon is Illuminated
Dec 31
Waning Gibbous
Jan 4
Last Quarter
Jan 11
New
Jan 18
First Quarter
Jan 26
Full

Hourly Weather History & Observations

Time (CST) Temp. Windchill Dew Point Humidity Pressure Visibility Wind Dir Wind Speed Gust Speed Precip Events Conditions
12:52 AM 37.0 °F 32.4 °F 19.9 °F 50% 30.15 in 10.0 mi SSW 5.8 mph - N/A   Clear
1:52 AM 37.0 °F 34.5 °F 19.9 °F 50% 30.15 in 10.0 mi SSW 3.5 mph - N/A   Clear
2:52 AM 37.0 °F 33.3 °F 19.9 °F 50% 30.15 in 10.0 mi SW 4.6 mph - N/A   Partly Cloudy
3:52 AM 36.0 °F 32.1 °F 21.0 °F 55% 30.14 in 10.0 mi SSW 4.6 mph - N/A   Clear
4:52 AM 36.0 °F 30.3 °F 21.0 °F 55% 30.13 in 10.0 mi SSW 6.9 mph - N/A   Clear
5:52 AM 36.0 °F 33.3 °F 21.0 °F 55% 30.10 in 10.0 mi South 3.5 mph - N/A   Overcast
6:52 AM 35.1 °F - 21.9 °F 59% 30.12 in 10.0 mi Calm Calm - N/A   Overcast
7:52 AM 35.1 °F 32.2 °F 23.0 °F 61% 30.13 in 10.0 mi South 3.5 mph - N/A   Overcast
8:52 AM 34.0 °F 28.0 °F 27.0 °F 75% 30.15 in 2.0 mi SSW 6.9 mph - 0.00 in Snow Light Snow
8:59 AM 33.8 °F 27.7 °F 28.4 °F 81% 30.14 in 1.2 mi SW 6.9 mph - 0.00 in Snow Light Snow
9:06 AM 33.8 °F 27.7 °F 28.4 °F 81% 30.13 in 1.0 mi SW 6.9 mph - 0.00 in Snow Light Snow
9:27 AM 33.8 °F - 30.2 °F 87% 30.14 in 0.8 mi Calm Calm - 0.00 in Snow Light Snow
9:43 AM 33.8 °F - 30.2 °F 87% 30.14 in 0.5 mi Calm Calm - 0.01 in Fog , Snow Light Snow
9:52 AM 33.1 °F - 30.9 °F 92% 30.16 in 0.8 mi Calm Calm - 0.01 in Snow Light Snow
10:06 AM 33.8 °F 30.8 °F 30.2 °F 87% 30.14 in 0.5 mi West 3.5 mph - 0.01 in Fog , Snow Light Snow
10:27 AM 33.8 °F 29.6 °F 30.2 °F 87% 30.15 in 0.8 mi WNW 4.6 mph - 0.02 in Snow Light Snow
10:34 AM 32.0 °F 27.5 °F 30.2 °F 93% 30.15 in 1.0 mi WNW 4.6 mph - 0.02 in Snow Light Snow
10:52 AM 33.1 °F 30.0 °F 30.9 °F 92% 30.17 in 0.8 mi NNW 3.5 mph - 0.03 in Snow Light Snow
11:01 AM 32.0 °F 27.5 °F 30.2 °F 93% 30.17 in 0.8 mi NW 4.6 mph - 0.01 in Snow Light Snow
11:22 AM 33.8 °F 28.6 °F 30.2 °F 87% 30.15 in 1.2 mi NNW 5.8 mph - 0.01 in Snow Light Snow
11:29 AM 32.0 °F 25.6 °F 30.2 °F 93% 30.14 in 2.0 mi NNW 6.9 mph - 0.01 in Snow Light Snow
11:36 AM 33.8 °F 27.7 °F 30.2 °F 87% 30.13 in 3.0 mi North 6.9 mph - 0.01 in   Overcast
11:52 AM 33.1 °F 26.9 °F 28.9 °F 85% 30.14 in 4.0 mi NNE 6.9 mph - 0.01 in   Overcast
12:12 PM 32.0 °F 24.2 °F 28.4 °F 87% 30.10 in 1.8 mi NNE 9.2 mph - 0.00 in Snow Light Snow
12:31 PM 32.0 °F 25.6 °F 28.4 °F 87% 30.09 in 2.5 mi NNE 6.9 mph - 0.00 in Snow Light Snow
12:38 PM 32.0 °F 25.6 °F 28.4 °F 87% 30.09 in 4.0 mi NNE 6.9 mph - 0.00 in   Overcast
12:52 PM 33.1 °F 26.9 °F 28.9 °F 85% 30.10 in 4.0 mi NE 6.9 mph - 0.00 in   Overcast
1:09 PM 33.8 °F 26.4 °F 28.4 °F 81% 30.06 in 4.0 mi NE 9.2 mph - N/A   Overcast
1:36 PM 32.0 °F 24.8 °F 28.4 °F 87% 30.07 in 2.5 mi NE 8.1 mph - 0.00 in Snow Light Snow
1:52 PM 32.0 °F 24.2 °F 28.9 °F 88% 30.09 in 2.0 mi NE 9.2 mph - 0.00 in Snow Light Snow
1:59 PM 32.0 °F 26.4 °F 28.4 °F 87% 30.06 in 1.5 mi NE 5.8 mph - 0.00 in Snow Light Snow
2:20 PM 32.0 °F 26.4 °F 28.4 °F 87% 30.07 in 0.8 mi NE 5.8 mph - 0.01 in Snow Light Snow
2:31 PM 32.0 °F 25.6 °F 28.4 °F 87% 30.06 in 0.5 mi NE 6.9 mph - 0.01 in Fog , Snow Light Snow
2:40 PM 32.0 °F 25.6 °F 28.4 °F 87% 30.06 in 0.8 mi NE 6.9 mph - 0.02 in Snow Light Snow
2:49 PM 30.2 °F 23.4 °F 28.4 °F 93% 30.07 in 0.5 mi NE 6.9 mph - 0.02 in Fog , Snow Light Snow
2:52 PM 30.9 °F 25.2 °F 28.0 °F 89% 30.09 in 0.5 mi NE 5.8 mph - 0.02 in Fog , Snow Light Snow
3:01 PM 32.0 °F 26.4 °F 28.4 °F 87% 30.06 in 0.2 mi NNE 5.8 mph - 0.01 in Fog , Snow Snow
3:13 PM 30.2 °F 22.6 °F 28.4 °F 93% 30.05 in 0.8 mi NE 8.1 mph - 0.01 in Snow Light Snow
3:24 PM 30.2 °F 24.3 °F 28.4 °F 93% 30.06 in 1.0 mi NE 5.8 mph - 0.01 in Snow Light Snow
3:52 PM 30.9 °F 22.2 °F 27.0 °F 85% 30.09 in 2.5 mi NE 10.4 mph - 0.01 in   Overcast
4:06 PM 30.2 °F 21.3 °F 26.6 °F 86% 30.07 in 2.5 mi NNE 10.4 mph - N/A   Overcast
4:16 PM 30.2 °F 21.9 °F 26.6 °F 86% 30.08 in 3.0 mi NNE 9.2 mph - N/A   Overcast
4:24 PM 30.2 °F 21.3 °F 26.6 °F 86% 30.07 in 2.0 mi NNE 10.4 mph - N/A   Overcast
5:05 PM 28.4 °F 19.7 °F 24.8 °F 86% 30.08 in 4.0 mi NNE 9.2 mph - N/A   Overcast
5:12 PM 28.4 °F 19.1 °F 24.8 °F 86% 30.09 in 5.0 mi NNE 10.4 mph - N/A   Overcast
5:52 PM 27.0 °F 17.3 °F 23.0 °F 85% 30.13 in 3.0 mi NNE 10.4 mph - 0.01 in Snow Light Snow
5:58 PM 26.6 °F 15.7 °F 23.0 °F 86% 30.11 in 2.0 mi NNE 12.7 mph - 0.00 in Snow Light Snow
6:13 PM 26.6 °F 19.1 °F 21.2 °F 80% 30.12 in 2.0 mi NNE 6.9 mph - 0.00 in Snow Light Snow
6:20 PM 26.6 °F 17.5 °F 21.2 °F 80% 30.12 in 1.5 mi NNE 9.2 mph - 0.00 in Snow Light Snow
6:52 PM 26.1 °F 16.8 °F 21.9 °F 84% 30.15 in 1.2 mi NNE 9.2 mph - 0.01 in Snow Light Snow
7:52 PM 26.1 °F 15.6 °F 21.9 °F 84% 30.16 in 1.2 mi NNE 11.5 mph - 0.01 in Snow Light Snow
8:17 PM 24.8 °F 16.9 °F 21.2 °F 86% 30.14 in 2.0 mi North 6.9 mph - 0.00 in Snow Light Snow
8:28 PM 24.8 °F 14.6 °F 21.2 °F 86% 30.14 in 2.5 mi NNE 10.4 mph 16.1 mph 0.00 in Snow Light Snow
8:36 PM 24.8 °F 14.0 °F 19.4 °F 80% 30.15 in 3.0 mi NNE 11.5 mph 19.6 mph 0.00 in Snow Light Snow
8:47 PM 24.8 °F 16.1 °F 19.4 °F 80% 30.15 in 2.5 mi NNE 8.1 mph - 0.00 in Snow Light Snow
8:52 PM 25.0 °F 16.3 °F 19.9 °F 81% 30.17 in 2.5 mi NNE 8.1 mph - 0.00 in Snow Light Snow
9:41 PM 24.8 °F 16.1 °F 19.4 °F 80% 30.16 in 7.0 mi NNE 8.1 mph - 0.00 in   Overcast
9:52 PM 24.1 °F 17.0 °F 19.0 °F 81% 30.19 in 10.0 mi NNE 5.8 mph - 0.00 in   Overcast
10:52 PM 24.1 °F 16.0 °F 19.0 °F 81% 30.22 in 4.0 mi North 6.9 mph - 0.00 in   Haze
11:23 PM 23.0 °F 14.7 °F 19.4 °F 86% 30.19 in 3.0 mi NNE 6.9 mph - N/A   Overcast
11:52 PM 23.0 °F - 19.0 °F 85% 30.22 in 6.0 mi Calm Calm - 0.00 in   Overcast